EW3989 Weather Reports


time (UTC)temp
C
wind
direction
speed
KPH
gust
KPH
rain 1hr
cm
rain 24hr
cm
rain mn
cm
humidity
%
barometer
mb
20260510031019 5 0.0 0.0 0.00 0.00 0.00 63 1011.3
20260510030018 5 0.0 0.0 0.00 0.00 0.00 60 1011.3
20260510025019 6 0.0 0.0 0.00 0.00 0.00 57 1011.2
20260510024019 6 0.0 0.0 0.00 0.00 0.00 54 1011.2
20260510023019 6 0.0 0.0 0.00 0.00 0.00 53 1011.0
20260510022019 7 0.0 0.0 0.00 0.00 0.00 50 1010.8
20260510021048 8 0.0 0.0 0.00 0.00 0.00 48 1010.8
20260510020036 8 0.0 0.0 0.00 0.00 0.00 47 1010.5
20260510015019 9 0.0 0.0 0.00 0.00 0.00 45 1010.3
20260510014036 10 0.0 0.0 0.00 0.00 0.00 43 1010.0
20260510013019 10 0.0 1.6 0.00 0.00 0.00 43 1009.7
20260510012018 10 0.0 1.6 0.00 0.00 0.00 42 1009.5
20260510011028 11 0.0 1.6 0.00 0.00 0.00 40 1009.2
20260510010019 11 0.0 3.2 0.00 0.00 0.00 40 1008.9
20260510005019 11 0.0 1.6 0.00 0.00 0.00 39 1008.8
20260510004039 12 0.0 0.0 0.00 0.00 0.00 39 1008.7
20260510003019 12 0.0 3.2 0.00 0.00 0.00 38 1008.5
20260510002018 12 0.0 1.6 0.00 0.00 0.00 39 1008.4
20260510001027 12 0.0 4.8 0.00 0.00 0.00 35 1008.2
20260510000018 12 0.0 3.2 0.00 0.00 0.00 38 1007.9
20260509235028 12 0.0 6.4 0.00 0.00 0.00 36 1007.8
20260509234020 13 0.0 4.8 0.00 0.00 0.00 34 1007.6
20260509233019 13 0.0 1.6 0.00 0.00 0.00 36 1007.4
20260509232018 13 23 1.6 6.4 0.00 0.00 0.00 34 1007.2
20260509231019 14 0.0 0.0 0.00 0.00 0.00 33 1007.2
20260509230027 14 0.0 1.6 0.00 0.00 0.00 34 1007.0
20260509225047 14 0.0 11.3 0.00 0.00 0.00 33 1006.8
20260509224018 15 0 1.6 11.3 0.00 0.00 0.00 33 1006.9
20260509223027 15 0.0 4.8 0.00 0.00 0.00 34 1006.6
20260509222020 15 0.0 4.8 0.00 0.00 0.00 34 1006.5
20260509221044 14 0.0 6.4 0.00 0.00 0.00 35 1006.4
20260509220018 15 0.0 3.2 0.00 0.00 0.00 34 1006.3
20260509215027 15 225 1.6 6.4 0.00 0.00 0.00 34 1006.2
20260509214018 15 0.0 3.2 0.00 0.00 0.00 37 1006.4
20260509213018 15 0.0 4.8 0.00 0.00 0.00 36 1006.2
20260509212035 16 0.0 9.7 0.00 0.00 0.00 34 1006.1
20260509211020 16 0.0 9.7 0.00 0.00 0.00 35 1006.1
20260509210038 16 225 1.6 4.8 0.00 0.00 0.00 35 1005.8
20260509205018 15 0.0 6.4 0.00 0.00 0.00 37 1005.6
20260509204047 14 225 1.6 11.3 0.00 0.00 0.00 39 1005.6
20260509203044 15 0.0 4.8 0.00 0.00 0.00 41 1005.3
20260509202038 15 0.0 4.8 0.00 0.00 0.00 39 1005.2
20260509201029 16 0.0 6.4 0.00 0.00 0.00 39 1005.2
20260509200018 16 0.0 3.2 0.00 0.00 0.00 38 1005.1
20260509195031 17 225 1.6 14.5 0.00 0.00 0.00 37 1004.9
20260509194018 17 45 1.6 9.7 0.00 0.00 0.00 44 1005.1
20260509193018 16 0.0 6.4 0.00 0.00 0.00 41 1004.9
20260509192037 15 45 1.6 11.3 0.00 0.00 0.00 43 1004.9
20260509191018 14 0.0 9.7 0.00 0.00 0.00 46 1005.0
20260509190027 15 338 1.6 6.4 0.00 0.00 0.00 43 1004.8
20260509185038 14 0.0 4.8 0.00 0.00 0.00 48 1004.7
20260509184020 15 0.0 8.0 0.00 0.00 0.00 44 1004.6
20260509183020 14 0.0 4.8 0.00 0.00 0.00 46 1004.6
20260509182020 15 68 1.6 12.9 0.00 0.00 0.00 48 1004.5
20260509181039 15 0.0 4.8 0.00 0.00 0.00 49 1004.4
20260509180027 14 225 1.6 8.0 0.00 0.00 0.00 52 1004.3
20260509175020 15 0.0 6.4 0.00 0.00 0.00 51 1004.1
20260509174020 15 0.0 3.2 0.00 0.00 0.00 54 1004.2
20260509173322 14 248 1.6 14.5 0.00 0.00 0.00 50 1003.8
20260509172020 15 0.0 4.8 0.00 0.00 0.00 55 1004.1
20260509171029 15 0.0 3.2 0.00 0.00 0.00 56 1004.0
20260509170030 14 0.0 11.3 0.00 0.00 0.00 55 1004.1
20260509165018 15 0.0 4.8 0.00 0.00 0.00 53 1004.0
20260509164020 13 0.0 4.8 0.00 0.00 0.00 58 1003.9
20260509163020 14 0.0 17.7 0.00 0.00 0.00 57 1003.9
20260509162029 13 0.0 9.7 0.00 0.00 0.00 62 1003.8
20260509161020 12 0.0 3.2 0.00 0.00 0.00 67 1003.5
20260509155028 12 0.0 6.4 0.00 0.00 0.00 67 1003.3
20260509154029 12 0.0 0.0 0.00 0.00 0.00 68 1003.2
20260509153020 10 0.0 3.2 0.00 0.00 0.00 71 1003.1
20260509152018 10 0.0 3.2 0.00 0.00 0.00 72 1003.1
20260509151020 10 0.0 1.6 0.00 0.00 0.00 71 1002.9
20260509150020 10 0.0 0.0 0.00 0.00 0.00 72 1002.9
20260509145020 10 0.0 0.0 0.00 0.00 0.00 71 1002.9
20260509144020 10 0.0 1.6 0.00 0.00 0.00 69 1002.7
20260509143031 10 0.0 0.0 0.00 0.00 0.00 64 1002.8
20260509142019 10 0.0 1.6 0.00 0.00 0.00 63 1002.7
20260509141028 11 0.0 0.0 0.00 0.00 0.00 61 1002.5
20260509140040 11 0.0 3.2 0.00 0.00 0.00 58 1002.4
20260509135031 10 0.0 0.0 0.00 0.00 0.00 59 1002.1
20260509134100 10 0.0 1.6 0.00 0.00 0.00 61 1002.4
20260509133028 10 0.0 4.8 0.00 0.00 0.00 58 1002.5
20260509132019 10 0.0 8.0 0.00 0.00 0.00 58 1002.3
20260509131040 10 0.0 0.0 0.00 0.00 0.00 61 1002.2
20260509130029 9 0.0 0.0 0.00 0.00 0.00 60 1002.4
20260509125037 9 0.0 0.0 0.00 0.00 0.00 62 1002.5
20260509124029 8 0.0 1.6 0.00 0.00 0.00 66 1002.2
20260509123020 8 0.0 1.6 0.00 0.00 0.00 67 1002.1
20260509122048 7 0.0 0.0 0.00 0.00 0.00 68 1001.9
20260509121048 7 0.0 0.0 0.00 0.00 0.00 67 1001.7
20260509120048 7 0.0 0.0 0.00 0.00 0.00 69 1001.5
20260509115019 7 0.0 0.0 0.00 0.00 0.00 69 1001.2
20260509114019 7 0.0 0.0 0.00 0.00 0.00 69 1001.0
20260509113028 7 0.0 0.0 0.00 0.00 0.00 70 1000.8
20260509112049 7 0.0 0.0 0.00 0.00 0.00 71 1000.8
20260509111040 7 0.0 0.0 0.00 0.00 0.00 70 1000.5
20260509110036 7 0.0 0.0 0.00 0.00 0.00 70 1000.5
20260509105020 6 0.0 0.0 0.00 0.00 0.00 71 1000.5
20260509104020 6 0.0 0.0 0.00 0.00 0.00 71 1000.3
20260509103100 6 0.0 0.0 0.00 0.00 0.00 68 1000.2
20260509102040 6 0.0 0.0 0.00 0.00 0.00 69 1000.3
20260509101048 7 0.0 0.0 0.00 0.00 0.00 67 1000.1
20260509100020 7 0.0 0.0 0.00 0.00 0.00 66 1000.2
20260509095019 7 0.0 0.0 0.00 0.00 0.00 61 1000.3
20260509094028 7 0.0 0.0 0.00 0.00 0.00 61 1000.3
20260509093028 8 0.0 0.0 0.00 0.00 0.00 60 1000.5
20260509092039 8 0.0 0.0 0.00 0.00 0.00 60 1000.6
20260509091047 8 0.0 0.0 0.00 0.00 0.00 60 1000.7
20260509090049 8 0.0 0.0 0.00 0.00 0.00 60 1000.6
20260509085028 8 0.0 0.0 0.00 0.00 0.00 60 1000.3
20260509084040 8 0.0 1.6 0.00 0.00 0.00 61 1000.2
20260509083045 8 0.0 0.0 0.00 0.00 0.00 61 1000.1
20260509082057 8 0.0 3.2 0.00 0.00 0.00 63 1000.3
20260509081036 8 0.0 0.0 0.00 0.00 0.00 64 1000.3
20260509080037 8 0.0 0.0 0.00 0.00 0.00 62 1000.0
20260509075019 8 0.0 4.8 0.00 0.00 0.00 65 999.8
20260509074019 7 0.0 0.0 0.00 0.00 0.00 68 999.7
20260509073028 7 0.0 0.0 0.00 0.00 0.00 71 999.6
20260509072039 6 0.0 0.0 0.00 0.00 0.00 77 999.7
20260509071019 6 0.0 0.0 0.00 0.00 0.00 78 999.6
20260509070037 6 0.0 0.0 0.00 0.00 0.00 77 999.6
20260509065039 7 0.0 0.0 0.00 0.00 0.00 72 999.5
20260509064019 7 0.0 0.0 0.00 0.00 0.00 73 999.5
20260509063048 7 0.0 0.0 0.00 0.00 0.00 73 999.7
20260509062019 6 0.0 0.0 0.00 0.00 0.00 75 999.8
20260509061028 6 0.0 0.0 0.00 0.00 0.00 73 999.9
20260509060020 7 0.0 0.0 0.00 0.00 0.00 72 1000.0
20260509055030 7 0.0 0.0 0.00 0.00 0.00 70 1000.0
20260509054019 7 0.0 0.0 0.00 0.00 0.00 72 1000.1
20260509053019 7 0.0 0.0 0.00 0.00 0.00 70 1000.2
20260509052019 7 0.0 0.0 0.00 0.00 0.00 69 1000.5
20260509051039 8 0.0 0.0 0.00 0.00 0.00 66 1000.6
20260509050027 8 0.0 0.0 0.00 0.00 0.00 68 1000.8
20260509045036 8 0.0 0.0 0.00 0.00 0.00 67 1000.9
20260509044019 8 0.0 0.0 0.00 0.00 0.00 67 1001.1
20260509043018 9 0.0 0.0 0.00 0.00 0.00 66 1001.2
20260509042027 9 0.0 0.0 0.00 0.00 0.00 65 1001.4
20260509041037 10 0.0 0.0 0.00 0.00 0.00 66 1001.4
20260509040019 10 0.0 0.0 0.00 0.00 0.00 63 1001.4
20260509035027 10 0.0 0.0 0.00 0.00 0.00 64 1001.5
20260509034039 10 0.0 0.0 0.00 0.00 0.00 62 1001.7
20260509033028 10 0.0 0.0 0.00 0.00 0.00 61 1001.7
20260509032027 10 0.0 0.0 0.00 0.00 0.00 61 1001.7